Location: Dumpton Point
(51.3500°N, 1.4433°E)
Time: 05:25:33
(UTC+00:00)

Altair - Pass Details

Date: 01 October 2022
Orbit: 1501 x 1682 km, 47.2° (Epoch: 04 December)

Event Time Altitude Azimuth Distance (km) Brightness Sun altitude
Rises 11:33:09 0° 287° (WNW) 4,915 10.0 35.3°
Reaches altitude 10° 11:36:36 10° 280° (W) 3,937 9.6 35.3°
Maximum altitude 11:45:28 36° 218° (SW) 2,433 9.8 35.4°
Drops below altitude 10° 11:54:18 10° 157° (SSE) 3,919 10.7 35.3°
Sets 11:57:45 0° 149° (SSE) 4,890 10.8 35.3°
